User: anonymous   Login
Location: Unspecified
(0.0000°N, 0.0000°E)
Time: 09:21:22
(UTC+02:00)
Language:

Cosmos 2219 - Orbit

View from above orbital plane
View from above orbital plane
View from above satellite
View from above satellite

Ground track
Ground track

The orbit data is extracted from the following two-line orbital elements,

1 22219U 92076A   15240.18372927  .00000174  00000-0  11738-3 0  9996
2 22219 071.0588 134.2382 0019272 310.9584 048.9870 14.13556462175085
Epoch (UTC): 28 August 2015 04:24:34
Eccentricity: 0.0019272
inclination: 71.0588°
perigee height: 833 km
apogee height: 861 km
right ascension of ascending node: 134.2382°
argument of perigee: 310.9584°
revolutions per day: 14.13556462
mean anomaly at epoch: 48.9870°
orbit number at epoch: 17508

The dashed part of the orbit path shows where the satellite is in the earth's shadow,  

DLR